Regional Weather Roundup
Issued by NWS

Home | Current Version | Previous Version | Graphics & Text | Print | Product List | Glossary On
Versions: 1 2 3 4 5 6 7 8 9 10 11 12 13 14 15 16 17 18 19 20 21 22 23 24 25 26 27 28 29 30 31 32 33 34 35 36 37 38 39 40 41 42 43 44 45 46 47 48 49 50
000
ASUS43 KDMX 242203
RWRIA

WEATHER ROUNDUP FOR IOWA
NATIONAL WEATHER SERVICE DES MOINES IA
500 PM CDT SAT SEP 24 2016

NOTE: "FAIR" INDICATES FEW OR NO CLOUDS BELOW 12,000 FEET WITH NO
SIGNIFICANT WEATHER AND/OR OBSTRUCTIONS TO VISIBILITY.

* - THESE STATIONS ARE NOT NWS STATIONS...THUS NOT UNDER NWS
QUALITY CONTROL.  THEY ALSO DO NOT REPORT WEATHER SUCH
AS PRECIPITATION OR FOG.

IAZ001>003-012>014-020>022-031>034-043>046-242300-
   NORTHWEST IOWA

CITY           SKY/WX    TMP DP  RH WIND       PRES   REMARKS
CARROLL *      CLOUDY    72  68  88 W16G28    30.00R FOG
CHEROKEE *     CLOUDY    71  70  98 S10       29.92F
DENISON *      LGT RAIN  70  68  94 E8        29.90F
LE MARS *      CLOUDY    73  70  88 S8        29.88F
ORANGE CITY *  CLOUDY    73  70  88 SE7G16    29.88F
SHELDON *      LGT RAIN  72  70  94 SE12      29.87F
SIOUX CITY     CLOUDY    74  71  91 E6        29.86F
SPENCER        LGT RAIN  74  69  85 SW22G32   29.93R
STORM LAKE *   CLOUDY    68  66  94 S9        29.96R
$$

IAZ055>058-069>071-079>083-090>094-242300-
   SOUTHWEST IOWA

CITY           SKY/WX    TMP DP  RH WIND       PRES   REMARKS
ATLANTIC *     RAIN      72  70  94 SW13G26   29.93F VSB 3/4
AUDUBON *      HVY RAIN  70  64  83 NW3       29.95R VSB 1
CLARINDA *       N/A     75  72  88 MISG      29.96R
COUNCIL BLFS * CLOUDY    72  70  94 S8        29.92R FOG
CRESTON *      MOSUNNY   84  68  58 S14G25    29.95F HX  87
HARLAN  *      CLOUDY    72  70  94 S3        29.96F
LAMONI         MOSUNNY   86  70  58 SE13G22   29.95F HX  90
RED OAK *      RAIN      72  72 100 SE8       29.94R
SHENANDOAH *   CLOUDY    72  72 100 SW5       29.95F
$$

IAZ047>049-059>061-072>074-084-242300-
   CENTRAL IOWA

CITY           SKY/WX    TMP DP  RH WIND       PRES   REMARKS
AMES           SUNNY     83  69  62 S14       29.95S HX  86
ANKENY *         N/A    N/A N/A N/A MISG        N/A
BOONE *        CLOUDY    84  66  54 SE14G21   29.94S HX  86
CHARITON *       N/A     86  68  54 SE17G23   29.96F HX  89
DES MOINES     PTSUNNY   87  68  52 SE17      29.93F HX  90
GRINNELL*      SUNNY     85  64  50 SE14      29.99F HX  86
KNOXVILLE *    SUNNY     86  66  51 SE15G21   29.96S HX  88
MARSHALLTOWN   SUNNY     84  67  56 SE14      29.97F HX  86
NEWTON *       MOSUNNY   86  66  51 SE15G22   29.96F HX  88
PELLA *        SUNNY     86  65  49 SE10      29.98S HX  88
PERRY *        PTSUNNY   84  68  58 SE14      29.94R HX  87
$$

IAZ004>006-015-016-023>025-035-036-242300-
   NORTH CENTRAL IOWA

CITY           SKY/WX    TMP DP  RH WIND       PRES   REMARKS
ALGONA *       CLOUDY    81  68  65 SE14      29.93S HX  83
CLARION *      MOSUNNY   82  66  57 SE10G18   29.95S HX  85
ESTHERVILLE    CLOUDY    80  68  66 SE17G24   29.90F HX  83
FORT DODGE *   CLOUDY    81  66  61 SE7       29.95R HX  83
FOREST CITY *    N/A     79  66  65 SE12G21   29.96S HX  81
WEBSTER CITY * MOSUNNY   84  68  58 SE17G24   29.93S HX  87
IOWA FALLS *     N/A     84  66  54 SE14      29.99S HX  86
$$

IAZ007>011-017>019-026>030-037>042-050>054-066-242300-
   NORTHEAST IOWA

CITY           SKY/WX    TMP DP  RH WIND       PRES   REMARKS
CEDAR RAPIDS   SUNNY     80  70  71 SE13      30.02F HX  83
CHARLES CITY * SUNNY     79  68  69 SE15      30.02S HX  81
CLINTON *      SUNNY     74  68  81 E13       30.07F
DECORAH *      CLOUDY    68  66  94 SE8G21    30.05S
DUBUQUE        CLOUDY    69  65  86 SE10      30.09F
MONTICELLO *   MOSUNNY   75  68  78 E10G17    30.05F
OELWEIN *      SUNNY     77  68  73 SE13G20   30.05R
WATERLOO       SUNNY     80  66  62 SE16G23   29.99F HX  82
$$

IAZ064-065-067-068-078-242300-
   EAST CENTRAL IOWA

CITY           SKY/WX    TMP DP  RH WIND       PRES   REMARKS
DAVENPORT      SUNNY     78  68  71 E14       30.05F HX  80
IOWA CITY      SUNNY     84  68  58 E9        30.02F HX  87
MT. PLEASANT * MOSUNNY   91  64  40 SE8       30.00F HX  92
MUSCATINE *    SUNNY     84  70  61 E13       30.01F HX  88
QUAD CITIES    SUNNY     81  69  67 E16       30.03F HX  84
$$

IAZ062-063-075>077-085>089-095>099-242300-
   SOUTHEAST IOWA

CITY           SKY/WX    TMP DP  RH WIND       PRES   REMARKS
BURLINGTON     SUNNY     87  67  51 S10       30.00F HX  90
FAIRFIELD *    SUNNY     88  61  40 S13       29.99F HAZE    HX  88
FORT MADISON *   N/A     88  64  45 SE6       30.01F HX  89
KEOKUK *       SUNNY     88  63  42 S9        30.00S HX  88
OSKALOOSA *      N/A     88  64  44 SE10      29.99S HX  89
CENTERVILLE *    N/A     84  66  54 SE12      30.00S HX  86
OTTUMWA        SUNNY     86  65  49 SE15      29.97F HX  88
WASHINGTON *     N/A    N/A N/A N/A MISG        N/A
$$

ABBREVIATIONS USED IN REMARKS
   TC - TEMPERATURES IN CELSIUS
  WCI - WIND CHILL INDEX
   HX - HEAT INDEX
  VSB - VISIBILITY
$$





USA.gov is the U.S. government's official web portal to all federal, state and local government web resources and services.